Time,TemperatureF,DewpointF,PressureIn,WindDirection,WindDirectionDegrees,WindSpeedMPH,WindSpeedGustMPH,Humidity,HourlyPrecipIn,Conditions,Clouds,dailyrainin,SoftwareType,DateUTC
2013-01-10 00:00:00,45.0,37.8,30.46,NNE,19,0.0,1.1,76,0.00,CLR,,0.00,WeatherDisplay:10.37,2013-01-10 05:00:00,
2013-01-10 00:03:00,45.0,37.8,30.46,NNE,19,0.0,0.0,76,0.00,CLR,,0.00,WeatherDisplay:10.37,2013-01-10 05:03:00,
2013-01-10 00:08:00,45.0,37.5,30.45,NE,42,0.0,0.0,75,0.00,CLR,,0.00,WeatherDisplay:10.37,2013-01-10 05:08:00,
2013-01-10 00:13:00,44.8,37.3,30.45,NE,42,2.5,2.5,75,0.00,CLR,,0.00,WeatherDisplay:10.37,2013-01-10 05:13:00,
2013-01-10 00:18:00,44.8,37.3,30.45,NE,42,2.8,3.5,75,0.00,CLR,,0.00,WeatherDisplay:10.37,2013-01-10 05:18:00,
2013-01-10 00:23:00,44.8,37.3,30.44,ENE,65,0.0,0.0,75,0.00,CLR,,0.00,WeatherDisplay:10.37,2013-01-10 05:23:00,
2013-01-10 00:28:00,44.8,37.3,30.45,ENE,65,1.8,2.3,75,0.00,CLR,,0.00,WeatherDisplay:10.37,2013-01-10 05:28:00,
2013-01-10 00:33:00,44.8,37.3,30.44,ENE,65,2.9,3.5,75,0.00,CLR,,0.00,WeatherDisplay:10.37,2013-01-10 05:33:00,
2013-01-10 00:38:00,44.6,37.2,30.45,East,87,2.5,2.5,75,0.00,CLR,,0.00,WeatherDisplay:10.37,2013-01-10 05:38:00,
2013-01-10 00:43:00,44.6,37.2,30.44,ENE,65,0.0,0.0,75,0.00,CLR,,0.00,WeatherDisplay:10.37,2013-01-10 05:43:00,
2013-01-10 00:48:00,44.6,37.2,30.44,North,357,1.5,3.5,75,0.00,CLR,,0.00,WeatherDisplay:10.37,2013-01-10 05:48:00,
2013-01-10 00:53:00,44.4,37.0,30.44,NE,42,0.9,1.1,75,0.00,CLR,,0.00,WeatherDisplay:10.37,2013-01-10 05:53:00,
2013-01-10 00:58:00,44.4,37.0,30.44,NE,42,0.0,0.0,75,0.00,CLR,,0.00,WeatherDisplay:10.37,2013-01-10 05:58:00,
2013-01-10 01:03:00,44.6,37.2,30.44,NE,42,0.0,0.0,75,0.00,CLR,,0.00,WeatherDisplay:10.37,2013-01-10 06:03:00,
2013-01-10 01:08:00,44.4,37.0,30.44,NE,42,0.0,0.0,75,0.00,CLR,,0.00,WeatherDisplay:10.37,2013-01-10 06:08:00,
2013-01-10 01:13:00,44.4,37.0,30.44,NE,42,2.5,2.5,75,0.00,CLR,,0.00,WeatherDisplay:10.37,2013-01-10 06:13:00,
2013-01-10 01:18:00,44.4,37.0,30.44,ENE,65,0.8,1.3,75,0.00,CLR,,0.00,WeatherDisplay:10.37,2013-01-10 06:18:00,
2013-01-10 01:23:00,44.4,37.0,30.44,NE,42,3.5,3.5,75,0.00,CLR,,0.00,WeatherDisplay:10.37,2013-01-10 06:23:00,
2013-01-10 01:28:00,44.8,37.3,30.44,ENE,65,0.1,2.2,75,0.00,CLR,,0.00,WeatherDisplay:10.37,2013-01-10 06:28:00,
2013-01-10 01:33:00,45.0,37.5,30.44,ESE,109,3.7,6.9,75,0.00,CLR,,0.00,WeatherDisplay:10.37,2013-01-10 06:33:00,
2013-01-10 01:38:00,45.0,37.5,30.44,ENE,65,3.1,4.6,75,0.00,CLR,,0.00,WeatherDisplay:10.37,2013-01-10 06:38:00,
2013-01-10 01:43:00,45.0,37.5,30.44,NNE,19,2.0,2.3,75,0.00,CLR,,0.00,WeatherDisplay:10.37,2013-01-10 06:43:00,
2013-01-10 01:48:00,45.0,37.5,30.44,East,87,1.4,2.3,75,0.00,CLR,,0.00,WeatherDisplay:10.37,2013-01-10 06:48:00,
2013-01-10 01:53:00,45.0,37.5,30.44,ENE,65,3.8,3.8,75,0.00,CLR,,0.00,WeatherDisplay:10.37,2013-01-10 06:53:00,
2013-01-10 01:58:00,45.1,37.7,30.44,NW,312,3.5,3.5,75,0.00,CLR,,0.00,WeatherDisplay:10.37,2013-01-10 06:58:00,
2013-01-10 02:03:00,45.1,37.7,30.44,NE,42,2.0,3.5,75,0.00,CLR,,0.00,WeatherDisplay:10.37,2013-01-10 07:03:00,
2013-01-10 02:08:00,45.1,37.7,30.44,ESE,109,2.9,3.5,75,0.00,SCT,,0.00,WeatherDisplay:10.37,2013-01-10 07:08:00,
2013-01-10 02:13:00,45.1,37.7,30.44,ENE,65,0.3,3.1,75,0.00,SCT,,0.00,WeatherDisplay:10.37,2013-01-10 07:13:00,
2013-01-10 02:18:00,45.1,37.7,30.44,East,87,1.9,3.5,75,0.00,SCT,,0.00,WeatherDisplay:10.37,2013-01-10 07:18:00,
2013-01-10 02:23:00,45.1,37.7,30.44,ENE,65,2.2,2.3,75,0.00,SCT,,0.00,WeatherDisplay:10.37,2013-01-10 07:23:00,
2013-01-10 02:28:00,45.1,37.7,30.44,ENE,65,0.7,1.1,75,0.00,SCT,,0.00,WeatherDisplay:10.37,2013-01-10 07:28:00,
2013-01-10 02:33:00,45.1,37.7,30.44,NE,42,1.4,2.3,75,0.00,SCT,,0.00,WeatherDisplay:10.37,2013-01-10 07:33:00,
2013-01-10 02:38:00,45.0,37.5,30.44,ESE,109,0.0,0.0,75,0.00,SCT,,0.00,WeatherDisplay:10.37,2013-01-10 07:38:00,
2013-01-10 02:43:00,45.0,37.5,30.44,ENE,65,0.0,0.0,75,0.00,SCT,,0.00,WeatherDisplay:10.37,2013-01-10 07:43:00,
2013-01-10 02:48:00,44.8,37.3,30.44,ENE,65,1.4,1.6,75,0.00,SCT,,0.00,WeatherDisplay:10.37,2013-01-10 07:48:00,
2013-01-10 02:53:00,44.8,37.3,30.44,East,87,3.8,3.8,75,0.00,SCT,,0.00,WeatherDisplay:10.37,2013-01-10 07:53:00,
2013-01-10 02:58:00,44.6,37.2,30.44,ENE,65,0.0,0.0,75,0.00,SCT,,0.00,WeatherDisplay:10.37,2013-01-10 07:58:00,
2013-01-10 03:03:00,44.6,37.2,30.44,ENE,65,1.9,2.3,75,0.00,SCT,,0.00,WeatherDisplay:10.37,2013-01-10 08:03:00,
2013-01-10 03:08:00,44.6,37.2,30.44,East,87,4.2,4.6,75,0.00,OVC,,0.00,WeatherDisplay:10.37,2013-01-10 08:08:00,
2013-01-10 03:13:00,44.6,37.2,30.44,NE,42,1.1,1.1,75,0.00,OVC,,0.00,WeatherDisplay:10.37,2013-01-10 08:13:00,
2013-01-10 03:18:00,44.6,37.2,30.44,ENE,65,0.6,2.3,75,0.00,OVC,,0.00,WeatherDisplay:10.37,2013-01-10 08:18:00,
2013-01-10 03:23:00,44.6,37.2,30.45,NNW,335,0.9,2.3,75,0.00,OVC,,0.00,WeatherDisplay:10.37,2013-01-10 08:23:00,
2013-01-10 03:28:00,44.6,37.2,30.45,ENE,65,0.2,1.3,75,0.00,OVC,,0.00,WeatherDisplay:10.37,2013-01-10 08:28:00,
2013-01-10 03:33:00,44.6,37.2,30.45,East,87,1.6,2.3,75,0.00,OVC,,0.00,WeatherDisplay:10.37,2013-01-10 08:33:00,
2013-01-10 03:38:00,44.8,37.3,30.45,NE,42,2.0,2.3,75,0.00,OVC,,0.00,WeatherDisplay:10.37,2013-01-10 08:38:00,
2013-01-10 03:43:00,44.8,37.3,30.44,SE,132,2.2,4.0,75,0.00,OVC,,0.00,WeatherDisplay:10.37,2013-01-10 08:43:00,
2013-01-10 03:48:00,44.8,37.3,30.44,ESE,109,0.0,0.0,75,0.00,OVC,,0.00,WeatherDisplay:10.37,2013-01-10 08:48:00,
2013-01-10 03:53:00,44.8,37.3,30.44,ENE,65,0.0,0.0,75,0.00,OVC,,0.00,WeatherDisplay:10.37,2013-01-10 08:53:00,
2013-01-10 03:58:00,45.0,37.5,30.44,ENE,65,0.0,0.0,75,0.00,OVC,,0.00,WeatherDisplay:10.37,2013-01-10 08:58:00,
2013-01-10 04:03:00,44.8,37.3,30.43,East,87,0.0,0.0,75,0.00,OVC,,0.00,WeatherDisplay:10.37,2013-01-10 09:03:00,
2013-01-10 04:08:00,45.0,37.5,30.43,ESE,109,3.8,3.8,75,0.00,OVC,,0.00,WeatherDisplay:10.37,2013-01-10 09:08:00,
2013-01-10 04:13:00,45.0,37.5,30.43,ENE,65,2.8,3.5,75,0.00,OVC,,0.00,WeatherDisplay:10.37,2013-01-10 09:13:00,
2013-01-10 04:18:00,45.0,37.5,30.43,ENE,65,3.2,3.5,75,0.00,OVC,,0.00,WeatherDisplay:10.37,2013-01-10 09:18:00,
2013-01-10 04:23:00,45.0,37.5,30.42,East,87,3.4,3.5,75,0.00,OVC,,0.00,WeatherDisplay:10.37,2013-01-10 09:23:00,
2013-01-10 04:28:00,45.0,37.5,30.42,ENE,65,2.4,2.4,75,0.00,OVC,,0.00,WeatherDisplay:10.37,2013-01-10 09:28:00,
2013-01-10 04:33:00,45.0,37.5,30.42,ENE,65,1.1,3.5,75,0.00,OVC,,0.00,WeatherDisplay:10.37,2013-01-10 09:33:00,
2013-01-10 04:38:00,45.0,37.5,30.42,ENE,65,2.0,2.3,75,0.00,OVC,,0.00,WeatherDisplay:10.37,2013-01-10 09:38:00,
2013-01-10 04:43:00,45.0,37.5,30.42,East,87,0.0,0.0,75,0.00,OVC,,0.00,WeatherDisplay:10.37,2013-01-10 09:43:00,
2013-01-10 04:48:00,45.0,37.5,30.42,ESE,109,3.3,3.5,75,0.00,OVC,,0.00,WeatherDisplay:10.37,2013-01-10 09:48:00,
2013-01-10 04:53:00,45.0,37.5,30.42,NNE,19,4.0,4.0,75,0.00,OVC,,0.00,WeatherDisplay:10.37,2013-01-10 09:53:00,
2013-01-10 04:58:00,45.1,37.7,30.41,ENE,65,6.4,6.9,75,0.00,OVC,,0.00,WeatherDisplay:10.37,2013-01-10 09:58:00,
2013-01-10 05:03:00,45.1,37.7,30.41,ENE,65,1.4,1.4,75,0.00,OVC,,0.00,WeatherDisplay:10.37,2013-01-10 10:03:00,
2013-01-10 05:08:00,45.1,37.7,30.41,ENE,65,1.6,1.6,75,0.00,BKN,,0.00,WeatherDisplay:10.37,2013-01-10 10:08:00,
2013-01-10 05:13:00,45.1,37.7,30.41,East,87,3.8,3.8,75,0.00,BKN,,0.00,WeatherDisplay:10.37,2013-01-10 10:13:00,
2013-01-10 05:18:00,45.1,37.7,30.41,ENE,65,3.3,3.5,75,0.00,BKN,,0.00,WeatherDisplay:10.37,2013-01-10 10:18:00,
2013-01-10 05:23:00,45.1,37.3,30.40,ESE,109,3.6,3.6,74,0.00,BKN,,0.00,WeatherDisplay:10.37,2013-01-10 10:23:00,
2013-01-10 05:28:00,45.1,37.7,30.41,East,87,2.2,2.3,75,0.00,BKN,,0.00,WeatherDisplay:10.37,2013-01-10 10:28:00,
2013-01-10 05:33:00,45.1,37.7,30.40,ENE,65,3.5,4.6,75,0.00,BKN,,0.00,WeatherDisplay:10.37,2013-01-10 10:33:00,
2013-01-10 05:38:00,45.1,37.7,30.41,ESE,109,6.9,6.9,75,0.00,BKN,,0.00,WeatherDisplay:10.37,2013-01-10 10:38:00,
2013-01-10 05:41:00,49.8,46.4,30.18,ENE,60,2.0,2.0,88,0.00,RA,,0.30,WeatherDisplay:10.37,2013-01-10 10:41:00,
2013-01-10 05:42:00,49.8,46.4,30.18,ENE,60,2.0,0.0,88,0.00,RA,,0.30,WeatherDisplay:10.37,2013-01-10 10:42:00,
2013-01-10 05:43:00,45.1,37.7,30.40,NE,42,3.4,3.5,75,0.00,BKN,,0.00,WeatherDisplay:10.37,2013-01-10 10:43:00,
2013-01-10 05:44:00,49.8,46.4,30.18,ENE,60,2.0,0.0,88,0.00,RA,,0.30,WeatherDisplay:10.37,2013-01-10 10:44:00,
2013-01-10 05:45:00,49.8,46.4,30.18,ENE,60,2.0,0.0,88,0.00,RA,,0.30,WeatherDisplay:10.37,2013-01-10 10:45:00,
2013-01-10 05:48:00,45.3,37.9,30.40,East,87,4.5,4.6,75,0.00,BKN,,0.00,WeatherDisplay:10.37,2013-01-10 10:48:00,
2013-01-10 05:53:00,45.3,37.9,30.40,NE,42,5.1,5.1,75,0.00,BKN,,0.00,WeatherDisplay:10.37,2013-01-10 10:53:00,
2013-01-10 05:58:00,45.3,37.5,30.39,East,87,4.2,6.9,74,0.00,BKN,,0.00,WeatherDisplay:10.37,2013-01-10 10:58:00,
2013-01-10 06:03:00,45.3,37.5,30.39,ESE,109,3.5,3.5,74,0.00,BKN,,0.00,WeatherDisplay:10.37,2013-01-10 11:03:00,
2013-01-10 06:08:00,45.3,37.5,30.39,ENE,65,5.8,5.8,74,0.00,BKN,,0.00,WeatherDisplay:10.37,2013-01-10 11:08:00,
2013-01-10 06:13:00,45.1,37.3,30.39,SE,132,4.8,4.8,74,0.00,BKN,,0.00,WeatherDisplay:10.37,2013-01-10 11:13:00,
2013-01-10 06:16:00,49.8,46.7,30.15,East,90,2.0,3.0,89,0.00,OVC,,0.30,WeatherDisplay:10.37,2013-01-10 11:16:00,
2013-01-10 06:17:00,49.8,46.7,30.15,East,90,2.0,0.0,89,0.00,OVC,,0.30,WeatherDisplay:10.37,2013-01-10 11:17:00,
2013-01-10 06:18:00,45.1,37.7,30.39,ESE,109,3.7,3.7,75,0.00,BKN,,0.00,WeatherDisplay:10.37,2013-01-10 11:18:00,
2013-01-10 06:19:00,49.8,46.7,30.15,East,90,2.0,0.0,89,0.00,OVC,,0.30,WeatherDisplay:10.37,2013-01-10 11:19:00,
2013-01-10 06:20:00,49.8,46.7,30.15,East,90,2.0,0.0,89,0.00,OVC,,0.30,WeatherDisplay:10.37,2013-01-10 11:20:00,
2013-01-10 06:23:00,45.1,37.7,30.40,NE,42,4.0,4.0,75,0.00,BKN,,0.00,WeatherDisplay:10.37,2013-01-10 11:23:00,
2013-01-10 06:28:00,45.1,37.7,30.40,East,87,5.7,5.7,75,0.00,BKN,,0.00,WeatherDisplay:10.37,2013-01-10 11:28:00,
2013-01-10 06:33:00,45.1,37.3,30.39,East,87,1.8,2.3,74,0.00,BKN,,0.00,WeatherDisplay:10.37,2013-01-10 11:33:00,
2013-01-10 06:38:00,45.1,37.3,30.39,ESE,109,4.2,4.6,74,0.00,BKN,,0.00,WeatherDisplay:10.37,2013-01-10 11:38:00,
2013-01-10 06:43:00,45.1,37.0,30.39,ESE,109,1.8,1.8,73,0.00,BKN,,0.00,WeatherDisplay:10.37,2013-01-10 11:43:00,
2013-01-10 06:48:00,45.0,36.5,30.38,ESE,109,2.0,3.5,72,0.00,BKN,,0.00,WeatherDisplay:10.37,2013-01-10 11:48:00,
2013-01-10 06:53:00,45.0,36.1,30.39,ENE,65,1.0,1.1,71,0.00,BKN,,0.00,WeatherDisplay:10.37,2013-01-10 11:53:00,
2013-01-10 06:58:00,45.0,36.1,30.39,ENE,65,4.0,4.0,71,0.00,BKN,,0.00,WeatherDisplay:10.37,2013-01-10 11:58:00,
2013-01-10 07:03:00,44.8,35.9,30.38,NE,42,3.2,3.5,71,0.00,BKN,,0.00,WeatherDisplay:10.37,2013-01-10 12:03:00,
2013-01-10 07:08:00,44.8,35.9,30.38,ENE,65,5.1,5.1,71,0.00,-RA,,0.00,WeatherDisplay:10.37,2013-01-10 12:08:00,
2013-01-10 07:13:00,44.6,35.8,30.39,NE,42,6.9,6.9,71,0.00,-RA,,0.00,WeatherDisplay:10.37,2013-01-10 12:13:00,
2013-01-10 07:18:00,44.4,36.0,30.38,NE,42,3.3,4.6,72,0.00,-RA,,0.00,WeatherDisplay:10.37,2013-01-10 12:18:00,
2013-01-10 07:23:00,44.4,36.3,30.38,East,87,4.0,4.0,73,0.00,-RA,,0.00,WeatherDisplay:10.37,2013-01-10 12:23:00,
2013-01-10 07:28:00,44.2,36.1,30.38,ENE,65,5.8,5.8,73,0.00,-RA,,0.00,WeatherDisplay:10.37,2013-01-10 12:28:00,
2013-01-10 07:33:00,43.9,36.1,30.38,ENE,65,6.2,6.9,74,0.00,-RA,,0.00,WeatherDisplay:10.37,2013-01-10 12:33:00,
2013-01-10 07:38:00,43.7,36.0,30.37,East,87,0.9,1.1,74,0.00,-RA,,0.00,WeatherDisplay:10.37,2013-01-10 12:38:00,
2013-01-10 07:43:00,43.5,36.1,30.37,East,87,2.0,2.3,75,0.02,-RA,,0.02,WeatherDisplay:10.37,2013-01-10 12:43:00,
2013-01-10 07:48:00,43.3,36.3,30.38,East,87,0.0,0.0,76,0.02,-RA,,0.02,WeatherDisplay:10.37,2013-01-10 12:48:00,
2013-01-10 07:53:00,43.2,36.1,30.38,SE,132,4.7,4.7,76,0.02,-RA,,0.02,WeatherDisplay:10.37,2013-01-10 12:53:00,
2013-01-10 07:58:00,43.2,36.4,30.38,SE,132,2.9,4.6,77,0.02,-RA,,0.02,WeatherDisplay:10.37,2013-01-10 12:58:00,
2013-01-10 08:03:00,43.2,36.4,30.38,SE,132,2.8,3.5,77,0.02,-RA,,0.02,WeatherDisplay:10.37,2013-01-10 13:03:00,
2013-01-10 08:08:00,43.2,36.8,30.38,ESE,109,5.1,5.1,78,0.02,-RA,,0.02,WeatherDisplay:10.37,2013-01-10 13:08:00,
2013-01-10 08:13:00,43.2,36.8,30.38,East,87,2.8,3.5,78,0.02,-RA,,0.02,WeatherDisplay:10.37,2013-01-10 13:13:00,
2013-01-10 08:18:00,43.2,36.8,30.38,ESE,109,2.5,2.5,78,0.02,-RA,,0.02,WeatherDisplay:10.37,2013-01-10 13:18:00,
2013-01-10 08:23:00,43.2,36.8,30.38,ENE,65,1.8,2.3,78,0.02,-RA,,0.02,WeatherDisplay:10.37,2013-01-10 13:23:00,
2013-01-10 08:28:00,43.3,36.9,30.38,East,87,5.0,5.0,78,0.02,-RA,,0.02,WeatherDisplay:10.37,2013-01-10 13:28:00,
2013-01-10 08:33:00,43.3,36.9,30.38,East,87,3.7,4.6,78,0.02,-RA,,0.02,WeatherDisplay:10.37,2013-01-10 13:33:00,
2013-01-10 08:38:00,43.3,36.9,30.38,ENE,65,2.7,2.7,78,0.02,-RA,,0.02,WeatherDisplay:10.37,2013-01-10 13:38:00,
2013-01-10 08:43:00,43.7,37.3,30.38,SSW,199,2.7,3.5,78,0.00,-RA,,0.02,WeatherDisplay:10.37,2013-01-10 13:43:00,
2013-01-10 08:48:00,43.7,37.3,30.38,SE,132,3.2,3.5,78,0.00,-RA,,0.02,WeatherDisplay:10.37,2013-01-10 13:48:00,
2013-01-10 08:53:00,43.7,37.6,30.38,East,87,3.6,3.6,79,0.02,-RA,,0.04,WeatherDisplay:10.37,2013-01-10 13:53:00,
2013-01-10 08:58:00,43.7,37.9,30.38,ESE,109,5.5,5.8,80,0.02,-RA,,0.04,WeatherDisplay:10.37,2013-01-10 13:58:00,
2013-01-10 09:03:00,43.5,37.8,30.38,SE,132,4.5,4.6,80,0.02,-RA,,0.04,WeatherDisplay:10.37,2013-01-10 14:03:00,
2013-01-10 09:08:00,43.5,38.1,30.37,ENE,65,3.6,3.6,81,0.02,-RA,,0.04,WeatherDisplay:10.37,2013-01-10 14:08:00,
2013-01-10 09:13:00,43.5,38.1,30.38,ENE,65,3.1,3.6,81,0.04,-RA,,0.06,WeatherDisplay:10.37,2013-01-10 14:13:00,
2013-01-10 09:18:00,43.5,38.4,30.38,ENE,65,2.5,4.6,82,0.04,-RA,,0.06,WeatherDisplay:10.37,2013-01-10 14:18:00,
2013-01-10 09:23:00,43.5,38.4,30.37,ESE,109,4.7,4.7,82,0.04,-RA,,0.06,WeatherDisplay:10.37,2013-01-10 14:23:00,
2013-01-10 09:28:00,43.3,38.5,30.37,ESE,109,5.1,6.9,83,0.06,-RA,,0.08,WeatherDisplay:10.37,2013-01-10 14:28:00,
2013-01-10 09:33:00,43.5,38.7,30.37,ENE,65,3.1,3.5,83,0.06,-RA,,0.08,WeatherDisplay:10.37,2013-01-10 14:33:00,
2013-01-10 09:38:00,43.5,38.7,30.38,NW,312,2.5,2.5,83,0.08,-RA,,0.10,WeatherDisplay:10.37,2013-01-10 14:38:00,
2013-01-10 09:43:00,43.5,39.0,30.37,ESE,109,3.5,4.6,84,0.08,-RA,,0.12,WeatherDisplay:10.37,2013-01-10 14:43:00,
2013-01-10 09:48:00,43.5,39.0,30.37,ENE,65,2.7,3.5,84,0.10,-RA,,0.12,WeatherDisplay:10.37,2013-01-10 14:48:00,
2013-01-10 09:53:00,43.7,39.2,30.37,East,87,2.2,2.3,84,0.08,-RA,,0.12,WeatherDisplay:10.37,2013-01-10 14:53:00,
2013-01-10 09:58:00,43.7,39.5,30.37,East,87,3.8,3.8,85,0.08,-RA,,0.12,WeatherDisplay:10.37,2013-01-10 14:58:00,
2013-01-10 10:03:00,43.7,39.5,30.37,ESE,109,3.6,5.8,85,0.10,-RA,,0.14,WeatherDisplay:10.37,2013-01-10 15:03:00,
2013-01-10 10:08:00,43.7,39.5,30.37,ENE,65,4.2,4.6,85,0.10,RA,,0.14,WeatherDisplay:10.37,2013-01-10 15:08:00,
2013-01-10 10:13:00,43.9,39.7,30.36,East,87,1.2,1.2,85,0.10,RA,,0.16,WeatherDisplay:10.37,2013-01-10 15:13:00,
2013-01-10 10:18:00,43.9,39.7,30.36,NE,42,2.0,2.3,85,0.10,RA,,0.16,WeatherDisplay:10.37,2013-01-10 15:18:00,
2013-01-10 10:23:00,44.1,40.1,30.37,East,87,2.2,2.3,86,0.10,OVC,,0.16,WeatherDisplay:10.37,2013-01-10 15:23:00,
2013-01-10 10:28:00,44.2,40.3,30.37,East,87,4.8,4.8,86,0.08,OVC,,0.16,WeatherDisplay:10.37,2013-01-10 15:28:00,
2013-01-10 10:33:00,44.4,40.5,30.36,ENE,65,2.9,3.5,86,0.08,OVC,,0.16,WeatherDisplay:10.37,2013-01-10 15:33:00,
2013-01-10 10:38:00,44.4,40.5,30.36,ENE,65,4.5,4.6,86,0.06,OVC,,0.16,WeatherDisplay:10.37,2013-01-10 15:38:00,
2013-01-10 10:43:00,44.6,40.7,30.36,ENE,65,2.4,2.4,86,0.06,OVC,,0.16,WeatherDisplay:10.37,2013-01-10 15:43:00,
2013-01-10 10:48:00,44.8,40.8,30.36,NE,42,0.2,3.5,86,0.04,OVC,,0.16,WeatherDisplay:10.37,2013-01-10 15:48:00,
2013-01-10 10:53:00,44.8,40.8,30.35,East,87,0.9,1.1,86,0.04,OVC,,0.16,WeatherDisplay:10.37,2013-01-10 15:53:00,
2013-01-10 10:58:00,45.0,41.3,30.36,ESE,109,3.4,4.6,87,0.04,OVC,,0.16,WeatherDisplay:10.37,2013-01-10 15:58:00,
2013-01-10 11:03:00,45.1,41.5,30.36,ENE,65,1.6,3.5,87,0.02,OVC,,0.16,WeatherDisplay:10.37,2013-01-10 16:03:00,
2013-01-10 11:08:00,45.1,41.5,30.37,SE,132,3.8,3.8,87,0.02,-RA,,0.16,WeatherDisplay:10.37,2013-01-10 16:08:00,
2013-01-10 11:13:00,45.3,41.7,30.36,ENE,65,4.1,4.5,87,0.00,-RA,,0.16,WeatherDisplay:10.37,2013-01-10 16:13:00,
2013-01-10 11:18:00,45.5,41.9,30.35,ENE,65,2.9,3.5,87,0.00,-RA,,0.16,WeatherDisplay:10.37,2013-01-10 16:18:00,
2013-01-10 11:23:00,45.7,42.0,30.35,ENE,65,0.0,0.0,87,0.00,-RA,,0.16,WeatherDisplay:10.37,2013-01-10 16:23:00,
2013-01-10 11:28:00,46.0,42.4,30.35,South,177,1.6,2.3,87,0.02,-RA,,0.18,WeatherDisplay:10.37,2013-01-10 16:28:00,
2013-01-10 11:33:00,46.0,42.4,30.34,ESE,109,4.0,4.0,87,0.02,-RA,,0.18,WeatherDisplay:10.37,2013-01-10 16:33:00,
2013-01-10 11:38:00,46.0,42.4,30.34,NE,42,3.4,3.5,87,0.02,-RA,,0.18,WeatherDisplay:10.37,2013-01-10 16:38:00,
2013-01-10 11:43:00,46.0,42.4,30.34,NE,42,0.3,1.1,87,0.02,-RA,,0.18,WeatherDisplay:10.37,2013-01-10 16:43:00,
2013-01-10 11:48:00,46.0,42.4,30.33,ENE,65,3.1,3.5,87,0.02,-RA,,0.18,WeatherDisplay:10.37,2013-01-10 16:48:00,
2013-01-10 11:53:00,46.2,42.6,30.32,ESE,109,7.6,8.1,87,0.06,-RA,,0.22,WeatherDisplay:10.37,2013-01-10 16:53:00,
2013-01-10 11:58:00,46.2,42.6,30.32,NNE,19,0.0,0.0,87,0.06,-RA,,0.22,WeatherDisplay:10.37,2013-01-10 16:58:00,
2013-01-10 12:03:00,46.6,42.9,30.31,ESE,109,5.1,5.1,87,0.06,-RA,,0.22,WeatherDisplay:10.37,2013-01-10 17:03:00,
2013-01-10 12:08:00,46.6,42.9,30.31,East,87,2.0,2.3,87,0.06,OVC,,0.22,WeatherDisplay:10.37,2013-01-10 17:08:00,
2013-01-10 12:13:00,46.8,43.1,30.31,ENE,65,3.3,3.5,87,0.06,OVC,,0.22,WeatherDisplay:10.37,2013-01-10 17:13:00,
2013-01-10 12:18:00,46.9,43.3,30.30,ENE,65,5.4,5.8,87,0.06,OVC,,0.22,WeatherDisplay:10.37,2013-01-10 17:18:00,
2013-01-10 12:23:00,47.1,43.4,30.29,South,177,2.2,2.3,87,0.06,OVC,,0.22,WeatherDisplay:10.37,2013-01-10 17:23:00,
2013-01-10 12:28:00,47.3,43.6,30.29,East,87,3.5,3.5,87,0.04,OVC,,0.22,WeatherDisplay:10.37,2013-01-10 17:28:00,
2013-01-10 12:33:00,47.7,44.0,30.29,ENE,65,4.7,4.7,87,0.04,OVC,,0.22,WeatherDisplay:10.37,2013-01-10 17:33:00,
2013-01-10 12:38:00,47.8,44.2,30.28,East,87,6.5,6.9,87,0.04,OVC,,0.22,WeatherDisplay:10.37,2013-01-10 17:38:00,
2013-01-10 12:43:00,48.0,44.3,30.28,East,87,9.7,10.4,87,0.04,OVC,,0.22,WeatherDisplay:10.37,2013-01-10 17:43:00,
2013-01-10 12:48:00,48.0,44.3,30.28,ESE,109,8.3,8.3,87,0.04,OVC,,0.22,WeatherDisplay:10.37,2013-01-10 17:48:00,
2013-01-10 12:53:00,48.2,44.5,30.28,ENE,65,2.7,2.7,87,0.00,OVC,,0.22,WeatherDisplay:10.37,2013-01-10 17:53:00,
2013-01-10 12:58:00,48.6,44.9,30.28,East,87,1.2,4.6,87,0.00,OVC,,0.22,WeatherDisplay:10.37,2013-01-10 17:58:00,
2013-01-10 13:03:00,48.7,45.0,30.28,ESE,109,5.0,5.0,87,0.00,OVC,,0.22,WeatherDisplay:10.37,2013-01-10 18:03:00,
2013-01-10 13:08:00,48.9,45.2,30.28,ESE,109,8.5,8.5,87,0.00,OVC,,0.22,WeatherDisplay:10.37,2013-01-10 18:08:00,
2013-01-10 13:13:00,48.7,44.7,30.27,ESE,109,1.9,5.1,86,0.00,OVC,,0.24,WeatherDisplay:10.37,2013-01-10 18:13:00,
2013-01-10 13:18:00,48.7,44.7,30.27,ESE,109,3.1,4.7,86,0.06,RA,,0.28,WeatherDisplay:10.37,2013-01-10 18:18:00,
2013-01-10 13:23:00,48.4,44.4,30.27,ESE,109,2.7,2.7,86,0.06,RA,,0.28,WeatherDisplay:10.37,2013-01-10 18:23:00,
2013-01-10 13:28:00,48.4,44.7,30.27,ENE,65,1.3,2.3,87,0.06,OVC,,0.28,WeatherDisplay:10.37,2013-01-10 18:28:00,
2013-01-10 13:33:00,48.6,44.9,30.26,SE,132,1.3,2.3,87,0.06,OVC,,0.28,WeatherDisplay:10.37,2013-01-10 18:33:00,
2013-01-10 13:38:00,48.7,45.0,30.26,ENE,65,2.5,2.5,87,0.06,OVC,,0.28,WeatherDisplay:10.37,2013-01-10 18:38:00,
2013-01-10 13:43:00,48.7,45.0,30.26,ENE,65,3.0,3.5,87,0.06,OVC,,0.28,WeatherDisplay:10.37,2013-01-10 18:43:00,
2013-01-10 13:48:00,48.9,45.2,30.26,NE,42,2.2,2.3,87,0.06,OVC,,0.28,WeatherDisplay:10.37,2013-01-10 18:48:00,
2013-01-10 13:53:00,49.1,45.4,30.25,SSE,155,2.9,3.5,87,0.06,OVC,,0.28,WeatherDisplay:10.37,2013-01-10 18:53:00,
2013-01-10 13:58:00,49.6,45.9,30.24,ENE,65,4.2,4.6,87,0.06,OVC,,0.28,WeatherDisplay:10.37,2013-01-10 18:58:00,
2013-01-10 14:03:00,49.8,46.1,30.24,ESE,109,4.9,4.9,87,0.06,OVC,,0.28,WeatherDisplay:10.37,2013-01-10 19:03:00,
2013-01-10 14:08:00,49.8,46.1,30.24,East,87,1.3,1.3,87,0.06,-RA,,0.28,WeatherDisplay:10.37,2013-01-10 19:08:00,
2013-01-10 14:13:00,50.2,46.2,30.24,ESE,109,3.6,3.6,86,0.06,-RA,,0.28,WeatherDisplay:10.37,2013-01-10 19:13:00,
2013-01-10 14:18:00,50.0,46.0,30.24,ESE,109,3.6,3.6,86,0.00,-RA,,0.28,WeatherDisplay:10.37,2013-01-10 19:18:00,
2013-01-10 14:23:00,49.8,45.8,30.24,NE,42,5.8,5.8,86,0.00,-RA,,0.28,WeatherDisplay:10.37,2013-01-10 19:23:00,
2013-01-10 14:28:00,49.8,45.8,30.24,East,87,4.6,5.8,86,0.00,-RA,,0.28,WeatherDisplay:10.37,2013-01-10 19:28:00,
2013-01-10 14:33:00,49.8,45.8,30.24,ESE,109,0.0,3.5,86,0.00,-RA,,0.28,WeatherDisplay:10.37,2013-01-10 19:33:00,
2013-01-10 14:38:00,49.8,45.8,30.24,ENE,65,4.9,4.9,86,0.00,-RA,,0.28,WeatherDisplay:10.37,2013-01-10 19:38:00,
2013-01-10 14:43:00,49.8,45.8,30.24,ENE,65,1.8,2.3,86,0.00,-RA,,0.28,WeatherDisplay:10.37,2013-01-10 19:43:00,
2013-01-10 14:48:00,49.8,45.8,30.24,NE,42,2.2,2.3,86,0.00,-RA,,0.28,WeatherDisplay:10.37,2013-01-10 19:48:00,
2013-01-10 14:53:00,50.2,46.2,30.24,NE,42,0.8,1.8,86,0.00,-RA,,0.28,WeatherDisplay:10.37,2013-01-10 19:53:00,
2013-01-10 14:58:00,50.5,46.8,30.23,ESE,109,1.2,1.2,87,0.00,-RA,,0.28,WeatherDisplay:10.37,2013-01-10 19:58:00,
2013-01-10 15:03:00,50.7,46.7,30.24,ESE,109,4.7,4.7,86,0.00,-RA,,0.28,WeatherDisplay:10.37,2013-01-10 20:03:00,
2013-01-10 15:08:00,50.7,46.7,30.23,ESE,109,4.6,4.7,86,0.00,OVC,,0.28,WeatherDisplay:10.37,2013-01-10 20:08:00,
2013-01-10 15:13:00,50.7,46.7,30.22,ENE,65,2.3,2.3,86,0.00,OVC,,0.28,WeatherDisplay:10.37,2013-01-10 20:13:00,
2013-01-10 15:18:00,50.7,46.7,30.22,NNE,19,1.8,5.8,86,0.00,OVC,,0.28,WeatherDisplay:10.37,2013-01-10 20:18:00,
2013-01-10 15:23:00,50.7,46.7,30.22,ESE,109,3.4,3.5,86,0.00,OVC,,0.28,WeatherDisplay:10.37,2013-01-10 20:23:00,
2013-01-10 15:28:00,50.7,46.7,30.22,SSW,199,0.0,0.0,86,0.00,OVC,,0.28,WeatherDisplay:10.37,2013-01-10 20:28:00,
2013-01-10 15:33:00,50.7,46.7,30.23,ESE,109,2.5,2.5,86,0.00,OVC,,0.28,WeatherDisplay:10.37,2013-01-10 20:33:00,
2013-01-10 15:38:00,50.5,46.5,30.23,ESE,109,2.1,2.9,86,0.00,OVC,,0.28,WeatherDisplay:10.37,2013-01-10 20:38:00,
2013-01-10 15:43:00,50.5,46.5,30.22,ENE,65,1.8,2.7,86,0.00,OVC,,0.30,WeatherDisplay:10.37,2013-01-10 20:43:00,
2013-01-10 15:48:00,50.4,46.3,30.22,NNE,19,2.2,2.3,86,0.02,RA,,0.30,WeatherDisplay:10.37,2013-01-10 20:48:00,
2013-01-10 15:53:00,50.4,46.3,30.22,East,87,2.5,2.5,86,0.02,RA,,0.30,WeatherDisplay:10.37,2013-01-10 20:53:00,
2013-01-10 15:58:00,50.5,46.8,30.21,ENE,65,0.3,1.8,87,0.02,OVC,,0.30,WeatherDisplay:10.37,2013-01-10 20:58:00,
2013-01-10 16:03:00,50.7,47.0,30.21,East,87,4.7,4.7,87,0.02,OVC,,0.30,WeatherDisplay:10.37,2013-01-10 21:03:00,
2013-01-10 16:08:00,50.5,46.8,30.22,ESE,109,5.8,5.8,87,0.02,-RA,,0.30,WeatherDisplay:10.37,2013-01-10 21:08:00,
2013-01-10 16:13:00,50.7,47.0,30.22,SE,132,2.7,2.7,87,0.02,-RA,,0.30,WeatherDisplay:10.37,2013-01-10 21:13:00,
2013-01-10 16:18:00,50.7,47.0,30.21,ENE,65,0.0,0.0,87,0.02,-RA,,0.30,WeatherDisplay:10.37,2013-01-10 21:18:00,
2013-01-10 16:23:00,50.7,47.0,30.21,East,87,3.4,3.5,87,0.02,-RA,,0.30,WeatherDisplay:10.37,2013-01-10 21:23:00,
2013-01-10 16:28:00,50.9,47.2,30.21,ENE,65,3.0,3.5,87,0.02,-RA,,0.30,WeatherDisplay:10.37,2013-01-10 21:28:00,
2013-01-10 16:33:00,50.9,47.2,30.20,SE,132,3.6,3.6,87,0.02,-RA,,0.30,WeatherDisplay:10.37,2013-01-10 21:33:00,
2013-01-10 16:38:00,51.1,47.3,30.21,NE,42,1.1,1.1,87,0.02,-RA,,0.30,WeatherDisplay:10.37,2013-01-10 21:38:00,
2013-01-10 16:43:00,50.9,47.2,30.21,NE,42,1.7,2.3,87,0.02,-RA,,0.30,WeatherDisplay:10.37,2013-01-10 21:43:00,
2013-01-10 16:48:00,50.9,47.2,30.20,SE,132,3.1,3.5,87,0.00,-RA,,0.30,WeatherDisplay:10.37,2013-01-10 21:48:00,
2013-01-10 16:53:00,50.7,47.0,30.19,ESE,109,3.6,3.6,87,0.00,-RA,,0.30,WeatherDisplay:10.37,2013-01-10 21:53:00,
2013-01-10 16:58:00,50.7,47.0,30.19,ENE,65,1.7,3.5,87,0.00,-RA,,0.30,WeatherDisplay:10.37,2013-01-10 21:58:00,
2013-01-10 17:03:00,50.7,47.0,30.19,NE,42,0.0,0.0,87,0.00,-RA,,0.30,WeatherDisplay:10.37,2013-01-10 22:03:00,
2013-01-10 17:08:00,50.5,46.8,30.19,ESE,109,1.0,1.6,87,0.00,OVC,,0.30,WeatherDisplay:10.37,2013-01-10 22:08:00,
2013-01-10 17:13:00,50.5,46.8,30.19,ESE,109,0.0,0.0,87,0.00,OVC,,0.30,WeatherDisplay:10.37,2013-01-10 22:13:00,
2013-01-10 17:18:00,50.4,46.6,30.18,East,87,1.3,1.3,87,0.00,OVC,,0.30,WeatherDisplay:10.37,2013-01-10 22:18:00,
2013-01-10 17:23:00,50.2,46.5,30.18,SE,132,1.5,1.5,87,0.00,OVC,,0.30,WeatherDisplay:10.37,2013-01-10 22:23:00,
2013-01-10 17:28:00,49.8,46.4,30.18,East,87,1.8,2.3,88,0.00,OVC,,0.30,WeatherDisplay:10.37,2013-01-10 22:28:00,
2013-01-10 17:33:00,49.8,46.4,30.18,ENE,65,1.2,1.2,88,0.00,OVC,,0.30,WeatherDisplay:10.37,2013-01-10 22:33:00,
2013-01-10 17:38:00,49.8,46.4,30.18,NE,42,2.0,2.3,88,0.00,OVC,,0.30,WeatherDisplay:10.37,2013-01-10 22:38:00,
2013-01-10 17:45:00,49.8,46.4,30.18,NE,42,2.3,2.3,88,0.00,OVC,,0.30,WeatherDisplay:10.37,2013-01-10 22:45:00,
2013-01-10 17:50:00,49.6,46.2,30.17,ENE,65,4.2,5.8,88,0.00,RA,,0.30,WeatherDisplay:10.37,2013-01-10 22:50:00,
2013-01-10 17:55:00,49.8,46.4,30.17,ESE,109,4.0,4.0,88,0.00,RA,,0.30,WeatherDisplay:10.37,2013-01-10 22:55:00,
2013-01-10 18:00:00,49.8,46.4,30.17,East,87,2.1,2.3,88,0.00,OVC,,0.30,WeatherDisplay:10.37,2013-01-10 23:00:00,
2013-01-10 18:05:00,49.8,46.4,30.17,ESE,109,0.4,1.6,88,0.00,OVC,,0.30,WeatherDisplay:10.37,2013-01-10 23:05:00,
2013-01-10 18:10:00,49.6,46.2,30.16,ESE,109,2.9,3.5,88,0.00,OVC,,0.30,WeatherDisplay:10.37,2013-01-10 23:10:00,
2013-01-10 18:18:00,49.6,46.2,30.15,ENE,65,3.5,3.5,88,0.00,OVC,,0.30,WeatherDisplay:10.37,2013-01-10 23:18:00,
2013-01-10 18:23:00,49.8,46.7,30.15,East,87,3.1,3.5,89,0.00,OVC,,0.30,WeatherDisplay:10.37,2013-01-10 23:23:00,
2013-01-10 18:28:00,49.8,46.7,30.14,East,87,2.0,2.3,89,0.00,OVC,,0.30,WeatherDisplay:10.37,2013-01-10 23:28:00,
2013-01-10 18:33:00,49.8,46.7,30.14,NNE,19,2.0,2.3,89,0.00,OVC,,0.30,WeatherDisplay:10.37,2013-01-10 23:33:00,
2013-01-10 18:38:00,49.8,46.7,30.14,ESE,109,2.7,2.7,89,0.00,OVC,,0.30,WeatherDisplay:10.37,2013-01-10 23:38:00,
2013-01-10 18:43:00,50.2,47.1,30.14,South,177,2.5,2.5,89,0.00,OVC,,0.30,WeatherDisplay:10.37,2013-01-10 23:43:00,
2013-01-10 18:48:00,50.2,47.1,30.13,East,87,1.1,2.3,89,0.00,OVC,,0.30,WeatherDisplay:10.37,2013-01-10 23:48:00,
2013-01-10 18:53:00,50.2,47.1,30.13,SE,132,1.6,1.6,89,0.00,OVC,,0.30,WeatherDisplay:10.37,2013-01-10 23:53:00,
2013-01-10 18:58:00,50.4,47.2,30.12,ESE,109,0.0,0.0,89,0.00,OVC,,0.30,WeatherDisplay:10.37,2013-01-10 23:58:00,
2013-01-10 19:03:00,50.2,47.1,30.13,SE,132,2.9,3.5,89,0.00,OVC,,0.30,WeatherDisplay:10.37,2013-01-11 00:03:00,
2013-01-10 19:08:00,50.5,47.4,30.12,SE,132,1.6,2.2,89,0.00,BKN,,0.30,WeatherDisplay:10.37,2013-01-11 00:08:00,
2013-01-10 19:13:00,50.5,47.4,30.12,East,87,2.5,2.5,89,0.00,BKN,,0.30,WeatherDisplay:10.37,2013-01-11 00:13:00,
2013-01-10 19:18:00,50.5,47.4,30.12,SE,132,1.5,2.3,89,0.00,BKN,,0.30,WeatherDisplay:10.37,2013-01-11 00:18:00,
2013-01-10 19:23:00,50.7,47.6,30.12,ENE,65,1.8,2.7,89,0.00,BKN,,0.30,WeatherDisplay:10.37,2013-01-11 00:23:00,
2013-01-10 19:28:00,50.9,47.8,30.11,ESE,109,2.7,3.5,89,0.00,BKN,,0.30,WeatherDisplay:10.37,2013-01-11 00:28:00,
2013-01-10 19:33:00,51.1,48.0,30.11,East,87,0.7,2.3,89,0.00,BKN,,0.30,WeatherDisplay:10.37,2013-01-11 00:33:00,
2013-01-10 19:38:00,51.3,48.4,30.11,ESE,109,1.1,1.1,90,0.00,BKN,,0.30,WeatherDisplay:10.37,2013-01-11 00:38:00,
2013-01-10 19:43:00,51.3,48.4,30.10,ESE,109,0.0,0.0,90,0.00,BKN,,0.30,WeatherDisplay:10.37,2013-01-11 00:43:00,
2013-01-10 19:48:00,51.3,48.4,30.10,SSE,155,2.5,2.5,90,0.00,BKN,,0.30,WeatherDisplay:10.37,2013-01-11 00:48:00,
2013-01-10 19:53:00,51.1,48.2,30.09,East,87,0.0,0.0,90,0.00,BKN,,0.30,WeatherDisplay:10.37,2013-01-11 00:53:00,
2013-01-10 19:58:00,51.3,48.4,30.09,ENE,65,0.0,0.0,90,0.00,BKN,,0.30,WeatherDisplay:10.37,2013-01-11 00:58:00,
2013-01-10 20:03:00,51.4,48.6,30.09,SE,132,4.5,4.6,90,0.00,BKN,,0.30,WeatherDisplay:10.37,2013-01-11 01:03:00,
2013-01-10 20:08:00,51.6,48.8,30.08,SE,132,1.1,1.1,90,0.00,BKN,,0.30,WeatherDisplay:10.37,2013-01-11 01:08:00,
2013-01-10 20:13:00,52.2,49.3,30.08,SSW,199,0.3,1.1,90,0.00,BKN,,0.30,WeatherDisplay:10.37,2013-01-11 01:13:00,
2013-01-10 20:18:00,52.5,49.7,30.08,SSE,155,3.8,3.8,90,0.00,BKN,,0.30,WeatherDisplay:10.37,2013-01-11 01:18:00,
2013-01-10 20:24:00,53.1,50.2,30.08,NNE,19,4.0,4.0,90,0.00,BKN,,0.30,WeatherDisplay:10.37,2013-01-11 01:24:00,
2013-01-10 20:29:00,53.4,50.6,30.08,East,87,0.6,1.6,90,0.00,BKN,,0.30,WeatherDisplay:10.37,2013-01-11 01:29:00,
2013-01-10 20:34:00,53.8,50.9,30.08,ESE,109,4.0,4.0,90,0.00,BKN,,0.30,WeatherDisplay:10.37,2013-01-11 01:34:00,
2013-01-10 20:39:00,54.1,51.3,30.07,ESE,109,3.6,5.1,90,0.00,BKN,,0.30,WeatherDisplay:10.37,2013-01-11 01:39:00,
2013-01-10 20:44:00,54.3,51.4,30.08,SE,132,6.7,7.4,90,0.00,BKN,,0.30,WeatherDisplay:10.37,2013-01-11 01:44:00,
2013-01-10 20:49:00,54.7,51.8,30.08,SE,132,7.6,9.2,90,0.00,BKN,,0.30,WeatherDisplay:10.37,2013-01-11 01:49:00,
2013-01-10 20:54:00,55.0,52.2,30.07,SE,132,3.4,3.5,90,0.00,BKN,,0.30,WeatherDisplay:10.37,2013-01-11 01:54:00,
2013-01-10 20:59:00,55.2,52.3,30.06,ESE,109,6.3,7.4,90,0.00,BKN,,0.30,WeatherDisplay:10.37,2013-01-11 01:59:00,
2013-01-10 21:04:00,55.6,52.7,30.06,South,177,3.6,5.8,90,0.00,BKN,,0.30,WeatherDisplay:10.37,2013-01-11 02:04:00,
2013-01-10 21:09:00,55.9,53.0,30.06,ENE,65,5.3,11.5,90,0.00,BKN,,0.30,WeatherDisplay:10.37,2013-01-11 02:09:00,
2013-01-10 21:14:00,56.1,53.2,30.06,South,177,4.1,4.5,90,0.00,BKN,,0.30,WeatherDisplay:10.37,2013-01-11 02:14:00,
2013-01-10 21:19:00,56.3,53.4,30.05,SE,132,5.8,5.8,90,0.00,BKN,,0.30,WeatherDisplay:10.37,2013-01-11 02:19:00,
2013-01-10 21:24:00,56.5,53.6,30.05,ENE,65,2.0,7.6,90,0.00,BKN,,0.30,WeatherDisplay:10.37,2013-01-11 02:24:00,
2013-01-10 21:29:00,56.5,53.3,30.05,SSE,155,8.8,10.4,89,0.00,BKN,,0.30,WeatherDisplay:10.37,2013-01-11 02:29:00,
2013-01-10 21:34:00,56.8,53.3,30.05,SSE,155,3.1,8.1,88,0.00,BKN,,0.30,WeatherDisplay:10.37,2013-01-11 02:34:00,
2013-01-10 21:39:00,56.8,53.3,30.05,SW,222,3.7,3.7,88,0.00,BKN,,0.30,WeatherDisplay:10.37,2013-01-11 02:39:00,
2013-01-10 21:44:00,57.0,53.5,30.05,ESE,109,3.7,4.6,88,0.00,BKN,,0.30,WeatherDisplay:10.37,2013-01-11 02:44:00,
2013-01-10 21:49:00,57.0,53.2,30.05,SE,132,3.6,4.6,87,0.00,BKN,,0.30,WeatherDisplay:10.37,2013-01-11 02:49:00,
2013-01-10 21:54:00,57.0,53.2,30.04,ESE,109,3.4,5.1,87,0.00,BKN,,0.30,WeatherDisplay:10.37,2013-01-11 02:54:00,
2013-01-10 21:59:00,57.0,52.9,30.04,South,177,5.2,5.8,86,0.00,BKN,,0.30,WeatherDisplay:10.37,2013-01-11 02:59:00,
2013-01-10 22:04:00,57.0,52.9,30.04,East,87,0.0,8.1,86,0.00,BKN,,0.30,WeatherDisplay:10.37,2013-01-11 03:04:00,
2013-01-10 22:09:00,57.2,53.0,30.04,SE,132,4.3,11.6,86,0.00,BKN,,0.30,WeatherDisplay:10.37,2013-01-11 03:09:00,
2013-01-10 22:14:00,57.4,52.9,30.03,SE,132,2.7,2.7,85,0.00,BKN,,0.30,WeatherDisplay:10.37,2013-01-11 03:14:00,
2013-01-10 22:19:00,57.2,52.7,30.04,WSW,245,7.8,8.1,85,0.00,BKN,,0.30,WeatherDisplay:10.37,2013-01-11 03:19:00,
2013-01-10 22:24:00,57.0,52.2,30.04,SSW,199,5.4,9.2,84,0.00,BKN,,0.30,WeatherDisplay:10.37,2013-01-11 03:24:00,
2013-01-10 22:29:00,57.0,52.2,30.04,SSW,199,3.6,6.3,84,0.00,BKN,,0.30,WeatherDisplay:10.37,2013-01-11 03:29:00,
2013-01-10 22:34:00,57.0,52.2,30.05,SSE,155,1.6,6.9,84,0.00,BKN,,0.30,WeatherDisplay:10.37,2013-01-11 03:34:00,
2013-01-10 22:39:00,57.0,52.2,30.05,SW,222,2.7,3.5,84,0.00,BKN,,0.30,WeatherDisplay:10.37,2013-01-11 03:39:00,
2013-01-10 22:44:00,56.8,52.1,30.05,South,177,9.9,10.5,84,0.00,BKN,,0.30,WeatherDisplay:10.37,2013-01-11 03:44:00,
2013-01-10 22:49:00,56.8,52.1,30.05,SE,132,4.7,4.7,84,0.00,BKN,,0.30,WeatherDisplay:10.37,2013-01-11 03:49:00,
2013-01-10 22:54:00,56.5,51.7,30.04,ESE,109,2.5,3.5,84,0.00,BKN,,0.30,WeatherDisplay:10.37,2013-01-11 03:54:00,
2013-01-10 22:59:00,56.3,51.5,30.04,SSE,155,2.3,3.5,84,0.00,BKN,,0.30,WeatherDisplay:10.37,2013-01-11 03:59:00,
2013-01-10 23:04:00,56.1,51.4,30.04,SSE,155,5.4,5.8,84,0.00,BKN,,0.30,WeatherDisplay:10.37,2013-01-11 04:04:00,
2013-01-10 23:09:00,55.9,51.2,30.03,South,177,2.2,2.3,84,0.00,OVC,,0.30,WeatherDisplay:10.37,2013-01-11 04:09:00,
2013-01-10 23:14:00,55.9,51.2,30.03,ESE,109,3.6,3.6,84,0.00,OVC,,0.30,WeatherDisplay:10.37,2013-01-11 04:14:00,
2013-01-10 23:19:00,55.9,51.2,30.02,SSE,155,3.1,3.5,84,0.00,OVC,,0.30,WeatherDisplay:10.37,2013-01-11 04:19:00,
2013-01-10 23:24:00,55.9,51.5,30.02,SSE,155,2.9,4.7,85,0.00,OVC,,0.30,WeatherDisplay:10.37,2013-01-11 04:24:00,
2013-01-10 23:29:00,55.9,51.5,30.01,SE,132,4.2,4.6,85,0.00,OVC,,0.30,WeatherDisplay:10.37,2013-01-11 04:29:00,
2013-01-10 23:34:00,56.1,51.7,30.01,SSW,199,1.6,4.6,85,0.00,OVC,,0.30,WeatherDisplay:10.37,2013-01-11 04:34:00,
2013-01-10 23:39:00,56.1,51.4,30.01,East,87,3.8,3.8,84,0.00,OVC,,0.30,WeatherDisplay:10.37,2013-01-11 04:39:00,
2013-01-10 23:44:00,56.1,51.4,30.00,ESE,109,2.9,8.1,84,0.00,OVC,,0.30,WeatherDisplay:10.37,2013-01-11 04:44:00,
2013-01-10 23:49:00,56.3,51.5,30.00,South,177,2.2,2.3,84,0.00,OVC,,0.30,WeatherDisplay:10.37,2013-01-11 04:49:00,
2013-01-10 23:54:00,56.5,51.7,30.01,SSE,155,6.1,9.2,84,0.00,OVC,,0.30,WeatherDisplay:10.37,2013-01-11 04:54:00,
2013-01-10 23:59:00,56.5,51.7,30.00,SSE,155,6.7,6.9,84,0.00,OVC,,0.30,WeatherDisplay:10.37,2013-01-11 04:59:00,